Location: S�tio Afonso Gruber
(26.1760°S, 49.5250°W)
Time: 00:09:10
(UTC+00:00)

Intelsat 5-3 Rocket - Pass Details

Date: 05 October 2020
Orbit: 281 x 6111 km, 23.6° (Epoch: 22 October)

Event Time Altitude Azimuth Distance (km) Brightness Sun altitude
Exits shadow 04:07:44 68° 63° (ENE) 4,777 6.6 -55.6°
Drops below altitude 10° 04:41:50 10° 77° (ENE) 9,689 8.7 -51.3°
Sets 04:50:21 0° 77° (ENE) 10,608 9.1 -50.0°
